QPF
0.00 0.00 0.00 0.00 0.00 0.01 0.01 0.01 0.01 0.01 0.01 0.01 0.01 0.01 0.01 0.01 0.01 0.02 0.09 0.22 0.21 0.26 0.29 0.32 0.27 0.21 0.20 0.14 0.13 0.10 0.07 0.06 0.03 0.02 0.00 0.00 0.00 0.00 0.00 0.00 0.00 0.00 0.00 0.00 0.00 0.00 0.00 0.00 0.00 0.00 0.01 0.02
0.00 0.00 0.01 0.01 0.00 0.00 0.00 0.00 0.00 0.01 0.01 0.01 0.01 0.00 0.00 0.00 0.00 0.01 0.01 0.07 0.12 0.17 0.16 0.20 0.15 0.15 0.12 0.11 0.09 0.05 0.06 0.06 0.06 0.04 0.03 0.02 0.01 0.00 0.00 0.00 0.00 0.00 0.00 0.00 0.00 0.00 0.00 0.00 0.00 0.00 0.00 0.01
0.00 0.00 0.00 0.00 0.00 0.00 0.00 0.00 0.00 0.00 0.00 0.00 0.00 0.00 0.00 0.00 0.00 0.00 0.00 0.02 0.07 0.04 0.05 0.05 0.06 0.11 0.18 0.09 0.06 0.06 0.05 0.03 0.01 0.01 0.01 0.01 0.01 0.01 0.00 0.00 0.00 0.00 0.00 0.00 0.00 0.00 0.01 0.01 0.01 0.01 0.02 0.02
0.00 0.00 0.00 0.00 0.00 0.00 0.00 0.00 0.00 0.00 0.00 0.00 0.00 0.00 0.00 0.00 0.00 0.00 0.00 0.02 0.01 0.02 0.06 0.07 0.09 0.08 0.08 0.07 0.07 0.05 0.04 0.04 0.04 0.02 0.03 0.01 0.01 0.01 0.00 0.00 0.00 0.00 0.00 0.00 0.00 0.00 0.00 0.00 0.00 0.02 0.02 0.03
0.00 0.00 0.00 0.00 0.00 0.00 0.00 0.00 0.00 0.00 0.00 0.00 0.00 0.00 0.00 0.00 0.00 0.00 0.00 0.01 0.01 0.06 0.10 0.14 0.08 0.09 0.10 0.10 0.10 0.10 0.06 0.06 0.06 0.04 0.03 0.04 0.04 0.11 0.01 0.00 0.00 0.00 0.00 0.00 0.00 0.00 0.00 0.00 0.01 0.01 0.02 0.01
0.00 0.00 0.00 0.00 0.00 0.00 0.00 0.00 0.00 0.00 0.00 0.00 0.00 0.00 0.00 0.00 0.00 0.00 0.00 0.00 0.00 0.03 0.03 0.05 0.08 0.15 0.15 0.11 0.11 0.13 0.16 0.19 0.21 0.30 0.46 0.16 0.10 0.10 0.09 0.04 0.03 0.03 0.01 0.01 0.00 0.00 0.00 0.03 0.03 0.04 0.08 0.12
0.00 0.00 0.00 0.00 0.00 0.00 0.00 0.00 0.00 0.00 0.00 0.00 0.00 0.00 0.00 0.00 0.00 0.00 0.00 0.01 0.01 0.01 0.03 0.04 0.08 0.09 0.15 0.07 0.08 0.09 0.11 0.13 0.19 0.38 0.37 0.57 0.31 0.18 0.29 0.14 0.11 0.06 0.04 0.04 0.03 0.06 0.06 0.08 0.06 0.05 0.05 0.06
0.00 0.00 0.00 0.00 0.00 0.00 0.00 0.00 0.00 0.00 0.00 0.00 0.00 0.00 0.00 0.00 0.00 0.00 0.00 0.00 0.01 0.02 0.01 0.03 0.05 0.12 0.32 0.20 0.30 0.33 0.41 0.53 0.45 0.62 0.54 0.93 0.41 0.69 0.39 0.26 0.13 0.10 0.05 0.11 0.05 0.15 0.11 0.11 0.14 0.09 0.08 0.09
0.00 0.00 0.00 0.00 0.00 0.00 0.00 0.00 0.00 0.00 0.00 0.00 0.00 0.00 0.00 0.00 0.00 0.00 0.00 0.00 0.00 0.00 0.02 0.11 0.09 0.17 0.28 0.39 0.23 0.25 0.46 0.55 0.46 0.50 0.43 0.45 0.45 0.64 0.51 0.26 0.23 0.19 0.20 0.23 0.36 0.29 0.20 0.17 0.15 0.13 0.12 0.12
0.00 0.00 0.00 0.00 0.00 0.00 0.00 0.00 0.00 0.00 0.00 0.00 0.00 0.00 0.00 0.00 0.00 0.00 0.00 0.00 0.00 0.00 0.00 0.00 0.03 0.11 0.21 0.25 0.51 0.28 0.64 0.56 0.53 0.40 0.56 0.53 0.49 0.40 0.40 0.47 0.62 0.72 0.56 0.49 0.37 0.25 0.20 0.18 0.20 0.21 0.23 0.28
0.00 0.00 0.00 0.00 0.00 0.00 0.00 0.00 0.00 0.00 0.00 0.00 0.00 0.00 0.00 0.00 0.00 0.00 0.00 0.00 0.00 0.00 0.00 0.00 0.00 0.01 0.11 0.13 0.30 0.31 0.36 0.47 0.31 0.41 0.45 0.32 0.49 1.02 1.48 1.06 0.90 0.67 0.51 0.36 0.31 0.27 0.24 0.25 0.23 0.28 0.37 0.43
0.00 0.00 0.00 0.00 0.00 0.00 0.00 0.00 0.00 0.00 0.00 0.00 0.00 0.00 0.00 0.00 0.00 0.00 0.00 0.00 0.00 0.00 0.00 0.00 0.00 0.00 0.02 0.04 0.15 0.19 0.34 0.33 0.50 0.59 0.90 0.79 0.99 0.86 1.09 0.81 0.73 0.59 0.47 0.41 0.39 0.38 0.40 0.46 0.50 0.51 0.53 0.53
0.00 0.00 0.00 0.00 0.00 0.00 0.00 0.00 0.00 0.00 0.00 0.00 0.00 0.00 0.00 0.00 0.00 0.00 0.00 0.00 0.00 0.00 0.00 0.00 0.00 0.00 0.01 0.02 0.03 0.08 0.15 0.24 0.39 0.46 0.49 0.42 0.41 0.44 0.40 0.35 0.32 0.33 0.35 0.39 0.45 0.47 0.47 0.47 0.49 0.55 0.59 0.60
0.00 0.00 0.00 0.00 0.00 0.00 0.00 0.00 0.00 0.01 0.00 0.00 0.00 0.00 0.00 0.00 0.00 0.00 0.00 0.00 0.00 0.00 0.00 0.00 0.00 0.00 0.01 0.01 0.03 0.04 0.36 0.19 0.19 0.18 0.28 0.17 0.19 0.20 0.22 0.24 0.23 0.28 0.37 0.34 0.38 0.39 0.38 0.33 0.31 0.30 0.35 0.44
0.00 0.00 0.00 0.00 0.00 0.00 0.00 0.00 0.00 0.00 0.00 0.00 0.00 0.00 0.00 0.00 0.00 0.00 0.00 0.00 0.00 0.00 0.00 0.00 0.00 0.01 0.01 0.01 0.02 0.08 0.28 0.24 0.06 0.09 0.07 0.08 0.09 0.10 0.10 0.10 0.11 0.11 0.12 0.13 0.14 0.17 0.21 0.24 0.29 0.34 0.36 0.32
0.00 0.00 0.00 0.00 0.00 0.00 0.00 0.00 0.00 0.00 0.00 0.00 0.00 0.00 0.00 0.00 0.00 0.00 0.00 0.00 0.00 0.00 0.00 0.00 0.00 0.00 0.00 0.01 0.01 0.03 0.05 0.05 0.07 0.05 0.04 0.06 0.06 0.08 0.09 0.09 0.08 0.08 0.08 0.09 0.10 0.10 0.10 0.11 0.12 0.13 0.13 0.13
0.00 0.00 0.00 0.00 0.00 0.00 0.00 0.00 0.00 0.00 0.00 0.00 0.00 0.00 0.00 0.00 0.00 0.00 0.00 0.00 0.00 0.00 0.00 0.00 0.00 0.00 0.00 0.00 0.00 0.01 0.02 0.03 0.03 0.03 0.04 0.07 0.10 0.06 0.12 0.10 0.06 0.06 0.06 0.06 0.06 0.06 0.07 0.08 0.08 0.09 0.10 0.11
0.00 0.00 0.00 0.00 0.00 0.00 0.00 0.00 0.00 0.00 0.00 0.00 0.00 0.00 0.00 0.00 0.00 0.00 0.00 0.00 0.00 0.00 0.00 0.00 0.00 0.00 0.00 0.00 0.00 0.00 0.00 0.00 0.00 0.01 0.01 0.02 0.02 0.02 0.02 0.03 0.03 0.04 0.04 0.05 0.05 0.05 0.06 0.06 0.07 0.07 0.08 0.10
0.00 0.00 0.00 0.00 0.00 0.00 0.00 0.00 0.00 0.00 0.00 0.00 0.00 0.00 0.00 0.00 0.00 0.00 0.00 0.00 0.00 0.00 0.00 0.00 0.00 0.00 0.00 0.00 0.00 0.00 0.00 0.00 0.00 0.00 0.00 0.01 0.03 0.03 0.04 0.04 0.05 0.06 0.07 0.07 0.08 0.10 0.12 0.13 0.13 0.12 0.11 0.10
0.00 0.00 0.00 0.00 0.00 0.00 0.00 0.00 0.00 0.00 0.00 0.00 0.00 0.00 0.00 0.00 0.00 0.00 0.00 0.00 0.00 0.00 0.00 0.00 0.00 0.00 0.00 0.00 0.00 0.00 0.00 0.00 0.00 0.00 0.00 0.02 0.04 0.06 0.09 0.10 0.13 0.13 0.13 0.11 0.11 0.11 0.10 0.10 0.09 0.09 0.09 0.11
0.00 0.00 0.00 0.00 0.00 0.00 0.00 0.00 0.00 0.00 0.00 0.00 0.00 0.00 0.00 0.00 0.00 0.00 0.00 0.00 0.00 0.00 0.00 0.00 0.00 0.00 0.00 0.00 0.00 0.00 0.00 0.00 0.00 0.00 0.00 0.01 0.01 0.02 0.03 0.03 0.03 0.03 0.04 0.04 0.06 0.07 0.09 0.13 0.15 0.18 0.19 0.21
0.00 0.00 0.00 0.00 0.00 0.00 0.00 0.00 0.00 0.00 0.00 0.00 0.00 0.00 0.00 0.00 0.00 0.00 0.00 0.00 0.00 0.00 0.00 0.00 0.00 0.00 0.00 0.00 0.00 0.00 0.00 0.00 0.00 0.00 0.00 0.01 0.01 0.01 0.01 0.02 0.02 0.04 0.07 0.10 0.12 0.13 0.13 0.13 0.12 0.12 0.11 0.12
0.00 0.00 0.00 0.00 0.00 0.00 0.00 0.00 0.00 0.00 0.00 0.00 0.00 0.00 0.00 0.00 0.00 0.00 0.00 0.00 0.00 0.00 0.00 0.00 0.00 0.00 0.00 0.00 0.00 0.00 0.00 0.00 0.00 0.00 0.01 0.01 0.01 0.01 0.02 0.02 0.02 0.02 0.02 0.03 0.05 0.06 0.08 0.09 0.10 0.13 0.13 0.12
0.00 0.00 0.00 0.00 0.00 0.00 0.00 0.00 0.00 0.00 0.00 0.00 0.00 0.00 0.00 0.00 0.00 0.00 0.00 0.00 0.00 0.00 0.00 0.00 0.00 0.00 0.00 0.00 0.00 0.00 0.00 0.00 0.00 0.00 0.00 0.00 0.00 0.01 0.01 0.01 0.01 0.01 0.01 0.01 0.02 0.03 0.03 0.04 0.06 0.08 0.08 0.08
0.00 0.00 0.00 0.00 0.00 0.00 0.00 0.00 0.00 0.00 0.00 0.00 0.00 0.00 0.00 0.00 0.00 0.00 0.00 0.00 0.00 0.00 0.00 0.00 0.00 0.00 0.00 0.00 0.00 0.00 0.00 0.00 0.00 0.00 0.00 0.00 0.00 0.00 0.00 0.01 0.01 0.01 0.01 0.01 0.01 0.01 0.01 0.01 0.02 0.03 0.04 0.04
0.00 0.00 0.00 0.00 0.00 0.00 0.00 0.00 0.00 0.00 0.00 0.00 0.00 0.00 0.00 0.00 0.00 0.00 0.00 0.00 0.00 0.00 0.00 0.00 0.00 0.00 0.00 0.00 0.00 0.00 0.00 0.00 0.00 0.00 0.00 0.00 0.00 0.00 0.00 0.00 0.00 0.01 0.01 0.01 0.01 0.01 0.02 0.02 0.02 0.02 0.03 0.04
0.00 0.00 0.00 0.00 0.00 0.00 0.00 0.00 0.00 0.00 0.00 0.00 0.00 0.00 0.00 0.00 0.00 0.00 0.00 0.00 0.00 0.00 0.00 0.00 0.00 0.00 0.00 0.00 0.00 0.00 0.00 0.00 0.00 0.00 0.00 0.00 0.00 0.00 0.00 0.00 0.01 0.01 0.01 0.01 0.01 0.01 0.02 0.01 0.00 0.00 0.01 0.01
0.00 0.00 0.00 0.00 0.00 0.00 0.00 0.00 0.00 0.00 0.00 0.00 0.00 0.00 0.00 0.00 0.00 0.00 0.00 0.00 0.00 0.00 0.00 0.00 0.00 0.00 0.00 0.00 0.00 0.00 0.00 0.00 0.00 0.00 0.00 0.01 0.02 0.02 0.01 0.01 0.01 0.01 0.01 0.01 0.01 0.02 0.01 0.01 0.01 0.01 0.00 0.00
0.00 0.00 0.00 0.00 0.00 0.00 0.00 0.00 0.00 0.00 0.00 0.00 0.00 0.00 0.00 0.00 0.00 0.00 0.00 0.00 0.00 0.00 0.00 0.00 0.00 0.00 0.00 0.00 0.00 0.00 0.00 0.00 0.00 0.01 0.02 0.02 0.02 0.02 0.01 0.01 0.01 0.01 0.01 0.02 0.02 0.03 0.03 0.02 0.02 0.01 0.01 0.01
0.00 0.00 0.00 0.00 0.00 0.00 0.00 0.00 0.00 0.00 0.00 0.00 0.00 0.00 0.00 0.00 0.00 0.00 0.00 0.00 0.00 0.00 0.00 0.00 0.00 0.00 0.00 0.00 0.00 0.00 0.00 0.00 0.00 0.00 0.00 0.00 0.00 0.00 0.01 0.01 0.01 0.01 0.02 0.02 0.03 0.03 0.03 0.04 0.05 0.05 0.03 0.02
0.00 0.00 0.00 0.00 0.00 0.00 0.00 0.00 0.00 0.00 0.00 0.00 0.00 0.00 0.00 0.00 0.00 0.00 0.00 0.00 0.00 0.00 0.00 0.00 0.00 0.00 0.00 0.00 0.00 0.00 0.00 0.00 0.00 0.00 0.00 0.00 0.00 0.00 0.00 0.00 0.00 0.01 0.02 0.04 0.05 0.04 0.04 0.04 0.04 0.03 0.03 0.03
MSLP
1023.70 1023.54 1023.38 1023.22 1023.02 1022.82 1022.66 1022.50 1022.38 1022.22 1021.98 1021.78 1021.54 1021.34 1021.14 1020.94 1020.62 1020.34 1020.10 1019.82 1019.58 1019.30 1019.06 1018.94 1018.78 1018.42 1018.30 1018.34 1018.38 1018.38 1018.34 1018.30 1018.34 1018.34 1018.34 1018.30 1018.26 1018.22 1018.26 1018.34 1018.42 1018.50 1018.62 1018.70 1018.70 1018.74 1018.82 1018.90 1018.98 1019.02 1018.94 1018.62
1023.74 1023.70 1023.54 1023.38 1023.18 1023.02 1022.82 1022.66 1022.46 1022.26 1022.06 1021.86 1021.66 1021.38 1021.14 1020.90 1020.62 1020.30 1020.10 1019.86 1019.58 1019.34 1019.06 1018.86 1018.66 1018.54 1018.30 1018.22 1018.18 1018.22 1018.18 1018.14 1018.10 1018.14 1018.18 1018.14 1018.10 1018.10 1018.10 1018.18 1018.26 1018.34 1018.46 1018.50 1018.54 1018.58 1018.70 1018.82 1018.94 1019.06 1019.14 1018.70
1023.70 1023.78 1023.62 1023.46 1023.30 1023.14 1022.98 1022.78 1022.54 1022.30 1022.10 1021.90 1021.66 1021.42 1021.10 1020.82 1020.50 1020.26 1019.98 1019.82 1019.58 1019.42 1019.14 1018.82 1018.66 1018.50 1018.38 1018.26 1018.18 1018.10 1018.02 1017.98 1017.90 1017.90 1017.86 1017.86 1017.86 1017.90 1017.94 1018.02 1018.06 1018.18 1018.26 1018.34 1018.42 1018.50 1018.58 1018.70 1018.90 1019.02 1019.02 1018.58
1023.74 1023.70 1023.66 1023.46 1023.34 1023.22 1023.06 1022.82 1022.58 1022.34 1022.10 1021.82 1021.58 1021.38 1021.06 1020.78 1020.42 1020.14 1019.86 1019.74 1019.54 1019.46 1019.18 1018.94 1018.74 1018.54 1018.42 1018.30 1018.14 1018.02 1017.94 1017.90 1017.70 1017.50 1017.50 1017.46 1017.58 1017.70 1017.82 1017.82 1017.90 1018.02 1018.14 1018.18 1018.26 1018.34 1018.46 1018.58 1018.78 1018.90 1018.74 1018.46
1023.90 1023.74 1023.58 1023.30 1023.26 1023.22 1023.06 1022.86 1022.54 1022.34 1022.02 1021.74 1021.42 1021.30 1020.98 1020.62 1020.38 1020.22 1019.94 1019.74 1019.70 1019.46 1019.18 1018.98 1018.82 1018.66 1018.50 1018.30 1018.10 1017.98 1017.90 1017.82 1017.66 1017.42 1017.30 1017.30 1017.26 1017.38 1017.58 1017.70 1017.82 1017.94 1017.98 1018.06 1018.14 1018.22 1018.34 1018.46 1018.58 1018.42 1018.42 1018.46
1023.94 1023.70 1023.54 1023.46 1023.26 1023.14 1023.02 1022.82 1022.58 1022.18 1021.98 1021.74 1021.42 1021.26 1020.90 1020.66 1020.46 1020.42 1020.14 1019.98 1019.90 1019.54 1019.26 1018.94 1018.90 1018.66 1018.46 1018.30 1018.10 1017.98 1017.82 1017.70 1017.54 1017.46 1017.42 1017.42 1017.14 1017.18 1017.26 1017.42 1017.74 1017.86 1018.02 1018.10 1018.14 1018.26 1018.38 1018.50 1018.38 1018.42 1018.42 1018.50
1023.98 1023.78 1023.66 1023.50 1023.46 1023.26 1023.14 1022.98 1022.70 1022.38 1022.10 1021.86 1021.66 1021.42 1021.06 1020.74 1020.58 1020.58 1020.30 1020.18 1020.10 1019.78 1019.34 1019.06 1018.90 1018.74 1018.58 1018.34 1018.10 1017.94 1017.74 1017.58 1017.42 1017.26 1017.30 1017.34 1017.42 1017.42 1017.30 1017.30 1017.62 1017.74 1017.94 1018.06 1018.26 1018.38 1018.50 1018.50 1018.58 1018.66 1018.86 1019.02
1024.14 1024.06 1023.90 1023.78 1023.62 1023.46 1023.26 1023.06 1022.86 1022.62 1022.42 1022.18 1021.98 1021.62 1021.22 1020.94 1020.74 1020.62 1020.26 1020.18 1019.98 1019.62 1019.26 1018.98 1018.82 1018.74 1018.58 1018.38 1018.22 1018.22 1017.78 1017.54 1017.38 1017.22 1017.22 1017.42 1017.58 1017.58 1017.58 1017.58 1017.74 1017.90 1018.06 1018.18 1018.38 1018.38 1018.38 1018.42 1018.54 1018.62 1018.86 1019.14
1024.62 1024.58 1024.26 1024.14 1024.02 1023.78 1023.54 1023.38 1023.14 1022.86 1022.66 1022.54 1022.34 1021.94 1021.58 1021.30 1020.94 1020.70 1020.38 1020.26 1020.02 1019.74 1019.38 1019.10 1018.82 1018.70 1018.54 1018.46 1018.38 1018.30 1018.02 1017.86 1017.70 1017.50 1017.62 1017.70 1017.82 1017.78 1017.78 1017.78 1017.94 1018.10 1018.22 1018.22 1018.38 1018.54 1018.70 1018.82 1018.98 1019.22 1019.34 1019.46
1025.14 1024.94 1024.74 1024.62 1024.50 1024.14 1023.90 1023.74 1023.54 1023.22 1023.02 1022.86 1022.62 1022.34 1022.06 1021.58 1021.22 1020.90 1020.54 1020.38 1020.26 1019.98 1019.62 1019.34 1019.14 1019.02 1018.90 1018.74 1018.58 1018.42 1018.30 1018.22 1018.10 1018.10 1018.10 1018.10 1018.18 1018.38 1018.54 1018.46 1018.42 1018.50 1018.58 1018.82 1018.98 1019.06 1019.06 1019.22 1019.46 1019.66 1019.82 1019.94
1025.42 1025.30 1025.26 1025.10 1024.98 1024.66 1024.46 1024.18 1024.02 1023.70 1023.50 1023.34 1023.10 1022.82 1022.54 1022.14 1021.62 1021.22 1020.90 1020.70 1020.50 1020.34 1020.02 1019.86 1019.62 1019.38 1019.18 1019.02 1018.90 1018.78 1018.58 1018.42 1018.42 1018.46 1018.42 1018.38 1018.42 1018.54 1018.54 1018.94 1019.02 1018.98 1019.10 1019.18 1019.42 1019.58 1019.66 1019.74 1019.90 1020.06 1020.18 1020.26
1025.70 1025.66 1025.62 1025.58 1025.26 1025.06 1025.06 1024.70 1024.46 1024.26 1024.02 1023.78 1023.46 1023.26 1023.02 1022.66 1022.10 1021.66 1021.38 1021.10 1020.90 1020.62 1020.38 1020.22 1020.02 1019.74 1019.46 1019.30 1019.30 1019.10 1018.90 1018.78 1018.78 1018.82 1018.86 1018.90 1018.94 1018.86 1019.02 1019.22 1019.62 1019.66 1019.46 1019.42 1019.58 1019.78 1019.94 1020.02 1020.18 1020.42 1020.50 1020.54
1026.06 1026.06 1025.94 1025.82 1025.70 1025.54 1025.46 1025.14 1024.94 1024.70 1024.34 1024.06 1023.82 1023.62 1023.34 1023.06 1022.62 1022.14 1021.82 1021.58 1021.38 1021.02 1020.78 1020.54 1020.30 1020.06 1019.90 1019.74 1019.54 1019.34 1019.26 1019.22 1019.18 1019.22 1019.22 1019.18 1019.18 1019.14 1019.30 1019.50 1019.66 1019.62 1019.66 1019.82 1020.02 1020.14 1020.22 1020.30 1020.50 1020.66 1020.86 1020.94
1026.46 1026.42 1026.26 1026.14 1026.14 1026.02 1025.78 1025.58 1025.34 1025.06 1024.70 1024.50 1024.22 1023.98 1023.78 1023.50 1023.18 1022.82 1022.54 1022.14 1021.78 1021.46 1021.18 1020.90 1020.62 1020.34 1020.14 1020.06 1019.90 1019.66 1019.62 1019.62 1019.50 1019.50 1019.58 1019.58 1019.54 1019.58 1019.62 1019.74 1019.90 1019.74 1019.90 1020.18 1020.42 1020.58 1020.70 1020.86 1021.02 1021.14 1021.26 1021.30
1026.86 1026.70 1026.58 1026.46 1026.30 1026.22 1026.06 1025.90 1025.70 1025.46 1025.22 1024.94 1024.70 1024.54 1024.30 1023.90 1023.62 1023.26 1022.98 1022.62 1022.22 1021.90 1021.54 1021.22 1020.94 1020.70 1020.46 1020.26 1020.10 1020.02 1019.94 1019.90 1019.90 1019.90 1019.98 1020.02 1019.98 1019.94 1020.14 1020.34 1020.38 1020.34 1020.50 1020.74 1020.90 1021.14 1021.30 1021.50 1021.58 1021.66 1021.66 1021.66
1027.02 1026.98 1026.90 1026.74 1026.54 1026.46 1026.34 1026.14 1025.94 1025.74 1025.54 1025.42 1025.22 1024.98 1024.74 1024.38 1024.06 1023.74 1023.34 1023.10 1022.62 1022.38 1021.98 1021.66 1021.42 1021.14 1020.86 1020.66 1020.46 1020.26 1020.26 1020.18 1020.14 1020.10 1020.22 1020.34 1020.38 1020.42 1020.46 1020.62 1020.86 1020.98 1021.06 1021.34 1021.54 1021.70 1021.82 1021.86 1021.94 1022.02 1022.06 1022.02
1027.10 1027.06 1027.06 1026.94 1026.78 1026.66 1026.58 1026.34 1026.18 1026.06 1025.90 1025.70 1025.54 1025.38 1025.14 1024.82 1024.50 1024.10 1023.86 1023.50 1022.98 1022.66 1022.34 1022.06 1021.86 1021.58 1021.34 1021.06 1020.78 1020.50 1020.46 1020.38 1020.30 1020.26 1020.34 1020.50 1020.54 1020.66 1020.78 1020.98 1021.22 1021.38 1021.58 1021.90 1022.06 1022.18 1022.30 1022.34 1022.42 1022.46 1022.46 1022.46
1027.22 1027.18 1027.10 1027.06 1027.02 1026.98 1026.74 1026.54 1026.42 1026.38 1026.26 1026.06 1025.86 1025.66 1025.46 1025.18 1024.90 1024.66 1024.34 1024.02 1023.46 1022.90 1022.54 1022.30 1022.10 1022.06 1021.82 1021.54 1021.18 1020.86 1020.62 1020.46 1020.50 1020.50 1020.58 1020.62 1020.70 1021.06 1021.18 1021.42 1021.58 1021.74 1022.10 1022.34 1022.46 1022.54 1022.66 1022.70 1022.90 1022.94 1022.94 1022.94
1027.50 1027.38 1027.26 1027.18 1027.18 1027.14 1026.98 1026.82 1026.66 1026.58 1026.50 1026.38 1026.18 1025.94 1025.74 1025.62 1025.34 1025.02 1024.78 1024.46 1024.06 1023.46 1023.02 1022.54 1022.38 1022.30 1022.18 1021.94 1021.50 1021.26 1021.06 1020.82 1020.78 1020.86 1020.98 1020.86 1020.90 1021.18 1021.54 1021.94 1022.14 1022.30 1022.54 1022.70 1022.86 1022.94 1022.94 1023.02 1023.14 1023.14 1023.18 1023.18
1027.70 1027.54 1027.42 1027.34 1027.34 1027.22 1027.14 1027.02 1026.90 1026.74 1026.70 1026.66 1026.54 1026.26 1026.06 1025.94 1025.66 1025.42 1025.10 1024.78 1024.42 1023.94 1023.62 1023.26 1022.98 1022.74 1022.54 1022.22 1021.82 1021.66 1021.50 1021.34 1021.22 1021.18 1021.22 1021.38 1021.30 1021.42 1021.82 1022.06 1022.38 1022.58 1022.86 1023.10 1023.26 1023.30 1023.34 1023.42 1023.42 1023.46 1023.42 1023.46
1027.94 1027.78 1027.62 1027.54 1027.46 1027.38 1027.26 1027.14 1027.06 1026.94 1026.86 1026.78 1026.70 1026.58 1026.46 1026.26 1026.02 1025.74 1025.46 1025.10 1024.70 1024.34 1024.14 1023.86 1023.62 1023.38 1023.10 1022.62 1022.22 1021.98 1021.86 1021.82 1021.82 1021.74 1021.66 1021.70 1021.82 1021.66 1021.82 1022.14 1022.54 1022.78 1023.02 1023.26 1023.42 1023.54 1023.58 1023.62 1023.66 1023.66 1023.66 1023.70
1028.10 1027.94 1027.74 1027.66 1027.58 1027.54 1027.38 1027.38 1027.26 1027.14 1027.06 1026.98 1026.98 1026.90 1026.78 1026.66 1026.26 1026.06 1025.78 1025.46 1025.10 1024.74 1024.50 1024.22 1024.02 1023.58 1023.54 1023.14 1022.74 1022.42 1022.18 1022.14 1022.18 1022.14 1022.10 1022.30 1022.42 1022.30 1022.06 1022.18 1022.50 1022.86 1023.18 1023.34 1023.54 1023.74 1023.70 1023.74 1023.78 1023.90 1023.90 1023.94
1028.06 1027.98 1027.70 1027.46 1027.50 1027.54 1027.38 1027.34 1027.42 1027.34 1027.26 1027.30 1027.30 1027.30 1027.18 1026.90 1026.58 1026.38 1026.06 1025.78 1025.42 1025.10 1024.78 1024.46 1024.10 1023.90 1023.82 1023.58 1023.34 1023.10 1022.90 1022.70 1022.62 1022.54 1022.50 1022.50 1022.74 1022.94 1023.02 1022.98 1022.94 1023.02 1023.22 1023.42 1023.66 1023.86 1023.90 1023.94 1024.06 1024.06 1024.14 1024.14
1027.98 1027.74 1027.74 1027.78 1027.38 1027.54 1027.50 1027.58 1027.62 1027.58 1027.66 1027.70 1027.74 1027.74 1027.50 1027.26 1026.98 1026.74 1026.50 1026.22 1025.90 1025.62 1025.34 1024.94 1024.70 1024.42 1024.18 1023.94 1023.78 1023.70 1023.66 1023.54 1023.38 1023.26 1023.06 1023.02 1022.98 1023.02 1023.18 1023.38 1023.50 1023.46 1023.42 1023.54 1023.70 1023.94 1024.02 1024.06 1024.14 1024.30 1024.34 1024.38
1028.62 1028.42 1027.98 1028.10 1028.50 1028.18 1027.74 1027.94 1027.90 1027.90 1027.98 1028.10 1028.18 1028.10 1027.86 1027.62 1027.34 1027.14 1026.94 1026.66 1026.34 1026.14 1025.90 1025.58 1025.26 1024.98 1024.74 1024.50 1024.30 1024.10 1024.14 1024.10 1023.94 1023.74 1023.54 1023.50 1023.42 1023.42 1023.26 1023.38 1023.50 1023.66 1023.58 1023.34 1023.14 1023.58 1023.66 1023.82 1024.06 1024.22 1024.18 1024.30
1029.06 1029.10 1029.18 1029.14 1029.10 1028.70 1028.46 1028.34 1028.22 1028.30 1028.38 1028.46 1028.46 1028.34 1028.18 1027.98 1027.78 1027.54 1027.42 1027.14 1026.86 1026.70 1026.54 1026.18 1025.82 1025.58 1025.38 1025.26 1024.98 1024.62 1024.46 1024.42 1024.30 1024.14 1023.94 1023.70 1023.46 1023.58 1023.78 1023.82 1023.86 1023.94 1023.54 1022.74 1022.90 1022.50 1022.34 1023.38 1023.94 1024.18 1024.22 1024.22
1029.38 1029.22 1029.34 1029.30 1029.30 1028.90 1028.86 1028.94 1028.70 1028.74 1028.82 1028.74 1028.66 1028.62 1028.50 1028.34 1028.14 1027.94 1027.82 1027.66 1027.18 1027.22 1027.10 1026.82 1026.46 1026.22 1025.90 1025.82 1025.58 1025.06 1024.86 1024.86 1024.82 1024.78 1024.62 1024.30 1024.02 1023.58 1023.74 1024.10 1024.26 1024.30 1024.14 1023.74 1023.50 1023.50 1023.18 1021.62 1021.70 1022.98 1024.14 1024.14
1029.50 1029.50 1029.42 1029.46 1029.38 1029.26 1029.10 1028.94 1028.90 1028.82 1028.78 1028.82 1028.78 1028.74 1028.78 1028.70 1028.58 1028.42 1028.26 1028.18 1027.86 1027.66 1027.66 1027.46 1027.18 1026.86 1026.50 1026.30 1026.02 1025.74 1025.54 1025.46 1025.50 1025.38 1025.22 1025.02 1024.50 1024.18 1023.66 1023.66 1024.06 1024.42 1024.50 1024.50 1023.82 1022.54 1022.58 1022.70 1023.14 1021.86 1021.50 1022.66
1029.58 1029.38 1029.30 1029.30 1029.34 1029.22 1029.10 1028.98 1028.90 1028.74 1028.70 1028.94 1029.06 1029.02 1029.02 1029.14 1029.02 1028.86 1028.74 1028.58 1028.46 1028.14 1028.02 1027.94 1027.78 1027.54 1027.18 1026.94 1026.66 1026.22 1026.06 1025.98 1026.02 1025.98 1025.82 1025.62 1025.18 1024.94 1024.74 1024.30 1024.06 1024.34 1024.54 1024.62 1024.58 1024.22 1023.54 1022.46 1022.06 1022.30 1023.30 1023.10
1029.78 1029.58 1029.38 1029.22 1028.90 1028.70 1028.70 1028.98 1029.30 1029.34 1029.50 1029.34 1029.42 1029.46 1029.46 1029.50 1029.46 1029.34 1029.18 1029.06 1028.90 1028.78 1028.50 1028.34 1028.22 1028.02 1027.82 1027.54 1027.22 1026.94 1026.66 1026.58 1026.30 1026.30 1026.26 1026.10 1025.78 1025.50 1025.30 1025.06 1024.26 1024.22 1024.38 1024.70 1024.82 1024.86 1024.58 1024.70 1024.38 1024.38 1023.86 1024.02
1030.22 1029.94 1029.86 1029.82 1029.82 1029.70 1029.50 1029.34 1029.66 1029.90 1030.02 1029.94 1029.90 1029.90 1029.86 1029.82 1029.90 1029.90 1029.78 1029.70 1029.58 1029.42 1029.18 1028.98 1028.82 1028.66 1028.42 1028.18 1027.86 1027.46 1027.38 1027.38 1027.18 1026.86 1026.86 1026.50 1026.22 1025.90 1025.62 1025.38 1024.78 1024.90 1024.50 1024.42 1024.70 1025.02 1025.10 1025.14 1024.98 1024.90 1024.86 1024.06
Thickness
5635 5635 5636 5637 5637 5638 5639 5640 5640 5641 5642 5643 5644 5645 5646 5647 5648 5649 5650 5650 5652 5653 5655 5656 5657 5659 5660 5660 5661 5661 5661 5660 5659 5658 5658 5657 5657 5656 5656 5655 5654 5652 5652 5652 5651 5650 5649 5650 5649 5648 5647 5647
5633 5633 5634 5634 5635 5635 5636 5637 5637 5638 5639 5641 5642 5643 5644 5644 5645 5647 5647 5647 5648 5650 5651 5652 5653 5654 5655 5656 5656 5656 5657 5657 5655 5655 5655 5655 5654 5654 5653 5652 5651 5650 5649 5648 5648 5647 5646 5645 5644 5644 5643 5643
5631 5631 5631 5632 5632 5632 5633 5634 5635 5636 5637 5638 5639 5640 5641 5642 5643 5644 5644 5645 5646 5646 5647 5648 5649 5650 5650 5651 5651 5652 5653 5653 5652 5653 5653 5653 5653 5652 5651 5650 5649 5647 5646 5644 5644 5644 5642 5641 5640 5639 5639 5640
5628 5629 5629 5630 5630 5630 5631 5631 5632 5633 5634 5635 5637 5638 5638 5640 5641 5641 5642 5642 5642 5643 5643 5644 5645 5646 5646 5646 5646 5647 5647 5649 5650 5651 5651 5652 5651 5650 5648 5647 5646 5644 5643 5641 5641 5640 5639 5637 5635 5634 5635 5635
5625 5626 5626 5627 5627 5627 5627 5628 5629 5631 5631 5633 5634 5634 5636 5637 5637 5637 5638 5638 5638 5639 5640 5640 5641 5641 5641 5641 5641 5642 5643 5644 5646 5649 5651 5650 5650 5648 5646 5644 5642 5642 5639 5638 5637 5636 5635 5633 5632 5631 5631 5631
5622 5623 5623 5623 5623 5624 5624 5625 5626 5627 5628 5629 5630 5631 5632 5633 5633 5633 5634 5633 5633 5634 5636 5636 5637 5637 5636 5636 5636 5637 5638 5640 5641 5645 5648 5646 5644 5646 5645 5643 5639 5638 5636 5634 5633 5631 5630 5628 5627 5626 5625 5625
5619 5619 5619 5619 5619 5619 5620 5620 5621 5623 5624 5624 5625 5627 5628 5629 5629 5629 5629 5629 5629 5630 5631 5632 5632 5633 5632 5632 5632 5632 5633 5635 5637 5640 5642 5640 5639 5642 5643 5639 5635 5633 5632 5629 5628 5626 5624 5623 5622 5622 5620 5618
5613 5613 5613 5614 5614 5614 5615 5616 5617 5618 5619 5619 5620 5621 5623 5624 5624 5624 5625 5625 5625 5627 5627 5628 5628 5628 5628 5628 5628 5628 5629 5629 5631 5632 5634 5634 5634 5638 5638 5632 5629 5627 5625 5624 5622 5620 5618 5619 5619 5617 5615 5612
5606 5606 5607 5607 5608 5608 5609 5610 5611 5612 5613 5613 5614 5615 5616 5618 5619 5620 5621 5621 5622 5622 5623 5623 5624 5624 5623 5623 5623 5622 5623 5623 5623 5624 5624 5625 5626 5630 5628 5625 5624 5621 5618 5618 5616 5614 5612 5613 5612 5610 5608 5606
5599 5599 5599 5599 5600 5601 5602 5603 5604 5606 5606 5607 5608 5609 5610 5612 5613 5615 5616 5616 5616 5617 5618 5618 5618 5618 5617 5617 5618 5617 5618 5617 5616 5616 5615 5615 5617 5618 5616 5614 5614 5611 5610 5609 5606 5605 5605 5605 5604 5602 5601 5599
5592 5592 5591 5591 5592 5593 5594 5595 5597 5598 5598 5599 5600 5602 5602 5604 5607 5609 5610 5610 5611 5611 5611 5612 5612 5611 5611 5612 5612 5612 5612 5612 5611 5609 5608 5607 5607 5607 5606 5604 5602 5601 5601 5600 5598 5597 5596 5596 5595 5594 5592 5591
5584 5584 5584 5584 5585 5585 5586 5587 5588 5589 5590 5592 5593 5594 5595 5597 5599 5601 5602 5603 5604 5604 5605 5605 5605 5605 5605 5606 5605 5605 5605 5606 5605 5603 5602 5600 5599 5599 5598 5596 5594 5592 5592 5591 5590 5588 5588 5588 5586 5584 5583 5582
5577 5577 5577 5577 5577 5578 5578 5580 5580 5581 5583 5585 5586 5587 5588 5589 5591 5593 5594 5596 5596 5597 5598 5598 5599 5599 5599 5599 5599 5599 5599 5598 5598 5597 5595 5594 5593 5592 5591 5589 5587 5585 5583 5582 5579 5578 5579 5579 5576 5575 5574 5573
5569 5569 5569 5570 5569 5570 5571 5572 5572 5574 5575 5577 5578 5579 5581 5581 5583 5584 5585 5587 5588 5590 5591 5592 5593 5593 5593 5593 5593 5592 5592 5591 5590 5590 5588 5587 5586 5585 5584 5582 5580 5579 5577 5574 5571 5569 5568 5567 5566 5566 5565 5564
5562 5562 5562 5562 5562 5563 5563 5564 5565 5566 5567 5568 5569 5570 5572 5573 5575 5576 5577 5579 5580 5582 5583 5584 5585 5586 5586 5586 5586 5586 5585 5584 5583 5582 5581 5580 5579 5577 5576 5574 5572 5571 5569 5566 5564 5561 5559 5557 5557 5556 5556 5555
5556 5555 5555 5555 5556 5556 5556 5557 5558 5558 5559 5559 5560 5561 5563 5565 5567 5568 5569 5570 5572 5573 5575 5576 5577 5578 5579 5579 5579 5579 5578 5578 5577 5576 5574 5572 5571 5570 5568 5567 5565 5563 5560 5557 5555 5553 5550 5548 5547 5547 5547 5547
5550 5549 5549 5549 5549 5549 5549 5550 5551 5551 5551 5551 5552 5553 5555 5556 5558 5560 5561 5562 5564 5566 5567 5568 5569 5569 5570 5570 5571 5572 5572 5572 5570 5570 5568 5566 5565 5563 5561 5560 5557 5555 5552 5549 5546 5544 5542 5541 5538 5537 5536 5537
5544 5544 5543 5543 5543 5543 5543 5543 5544 5544 5543 5544 5544 5545 5546 5548 5549 5551 5552 5553 5556 5558 5559 5561 5561 5561 5561 5562 5563 5564 5565 5565 5564 5563 5562 5560 5558 5556 5553 5551 5549 5547 5544 5541 5539 5537 5535 5533 5530 5529 5527 5527
5537 5537 5537 5537 5536 5536 5536 5536 5537 5537 5537 5536 5537 5537 5538 5540 5540 5542 5543 5544 5546 5549 5551 5553 5554 5553 5553 5554 5555 5556 5556 5557 5556 5555 5554 5553 5552 5549 5545 5543 5540 5538 5536 5533 5532 5530 5528 5526 5524 5522 5520 5519
5529 5530 5530 5530 5530 5530 5530 5530 5530 5529 5530 5529 5529 5530 5530 5531 5532 5534 5535 5536 5537 5539 5541 5543 5544 5544 5545 5546 5547 5547 5547 5548 5548 5547 5546 5544 5543 5542 5538 5535 5532 5530 5527 5525 5523 5522 5520 5518 5517 5516 5514 5513
5521 5522 5522 5523 5523 5523 5523 5523 5524 5522 5522 5522 5522 5522 5522 5523 5524 5525 5527 5528 5529 5530 5532 5532 5534 5535 5535 5537 5539 5539 5540 5539 5539 5538 5537 5535 5534 5533 5531 5529 5526 5522 5520 5517 5516 5514 5513 5511 5510 5508 5507 5505
5514 5514 5515 5516 5515 5516 5516 5516 5516 5516 5515 5515 5514 5514 5513 5515 5516 5517 5519 5520 5521 5522 5523 5524 5524 5526 5526 5528 5529 5530 5531 5531 5530 5529 5528 5527 5525 5524 5523 5522 5519 5516 5513 5510 5508 5506 5505 5504 5502 5501 5499 5497
5507 5508 5508 5509 5510 5509 5509 5509 5509 5508 5508 5506 5506 5505 5506 5507 5508 5509 5510 5511 5513 5514 5515 5516 5517 5518 5518 5519 5520 5520 5521 5521 5521 5520 5519 5519 5517 5515 5513 5512 5510 5509 5507 5504 5502 5499 5498 5497 5494 5493 5491 5490
5501 5502 5502 5502 5502 5502 5502 5501 5501 5500 5499 5498 5497 5497 5497 5498 5500 5501 5502 5503 5504 5505 5506 5507 5508 5509 5509 5510 5511 5511 5510 5510 5510 5510 5510 5509 5508 5507 5505 5503 5501 5500 5499 5497 5495 5493 5491 5490 5488 5486 5484 5482
5492 5493 5493 5492 5491 5492 5494 5493 5493 5492 5491 5490 5489 5489 5490 5490 5491 5493 5493 5494 5495 5496 5496 5497 5498 5499 5500 5500 5501 5502 5501 5500 5500 5500 5500 5500 5499 5499 5497 5495 5494 5491 5491 5492 5491 5490 5487 5484 5481 5480 5478 5475
5484 5483 5483 5482 5481 5483 5484 5484 5484 5484 5482 5482 5481 5481 5482 5483 5483 5484 5484 5485 5486 5486 5486 5487 5488 5489 5490 5490 5491 5492 5492 5491 5491 5491 5491 5491 5491 5490 5489 5486 5485 5483 5484 5486 5486 5484 5485 5483 5478 5473 5470 5468
5475 5474 5474 5473 5473 5475 5475 5475 5475 5474 5474 5474 5474 5474 5474 5474 5475 5475 5475 5476 5476 5476 5476 5477 5478 5479 5480 5480 5481 5482 5483 5482 5482 5481 5481 5481 5482 5483 5482 5479 5476 5474 5474 5475 5475 5476 5479 5480 5478 5474 5469 5464
5467 5467 5467 5466 5465 5466 5467 5467 5467 5467 5467 5467 5466 5466 5466 5466 5466 5466 5466 5466 5467 5467 5466 5466 5467 5468 5469 5469 5471 5472 5472 5472 5471 5470 5470 5471 5472 5473 5474 5473 5470 5467 5465 5464 5465 5468 5471 5471 5472 5473 5469 5464
5461 5461 5461 5460 5460 5460 5461 5460 5460 5461 5460 5460 5459 5458 5458 5457 5457 5457 5457 5458 5457 5458 5457 5457 5458 5457 5459 5459 5460 5462 5462 5461 5461 5460 5460 5460 5461 5462 5462 5462 5463 5460 5457 5455 5454 5455 5458 5460 5463 5461 5456 5456
5454 5456 5455 5455 5455 5455 5456 5454 5452 5452 5451 5451 5451 5450 5450 5449 5448 5449 5449 5449 5449 5449 5449 5449 5449 5449 5450 5450 5450 5452 5451 5451 5451 5451 5450 5450 5451 5451 5451 5452 5454 5453 5450 5448 5446 5444 5443 5444 5445 5443 5440 5444
5446 5448 5447 5447 5447 5447 5447 5447 5444 5443 5442 5442 5442 5441 5442 5441 5441 5440 5440 5440 5440 5440 5440 5440 5440 5440 5440 5441 5442 5442 5442 5441 5442 5441 5441 5441 5442 5442 5442 5443 5443 5443 5442 5441 5439 5436 5434 5432 5430 5429 5429 5431